Wind_Speed
8 9 9 10 11 11 12 12 12 12 11 10 10 10 10 9 9 9 8 8 6 5 5 5 5 5 6 7 8 9 10 11 11 12 12 12 13 13 14 13 13 13 12
10 10 10 11 12 12 13 13 12 12 12 11 10 11 10 11 10 10 10 10 9 7 7 5 4 4 5 6 7 8 9 11 12 12 12 12 12 12 12 11 12 12 11
12 11 12 13 14 14 15 16 15 13 13 12 11 11 12 12 12 12 12 12 12 10 9 8 7 6 5 6 7 7 8 9 10 11 12 11 11 12 12 11 11 10 12
12 12 14 15 17 17 18 18 17 15 14 13 12 12 13 14 14 14 13 14 13 13 11 11 10 9 8 7 7 7 8 8 9 9 10 10 11 11 12 12 12 11 9
12 15 16 17 19 20 19 19 18 16 15 14 13 13 13 14 16 14 14 14 15 14 13 12 12 11 10 9 9 9 9 8 9 10 10 11 11 11 12 12 12 11 11
13 15 17 19 22 23 22 21 19 17 17 17 15 15 15 14 15 15 15 15 16 16 15 14 13 13 12 12 11 11 10 9 10 11 11 11 11 12 12 12 11 12 12
16 19 21 21 21 22 23 23 22 20 20 19 19 18 18 16 14 14 14 13 14 15 15 15 15 14 15 15 14 13 12 11 11 11 13 13 13 13 13 13 13 12 12
20 20 20 20 20 21 21 21 22 22 21 21 19 18 18 15 13 12 14 15 15 16 16 16 16 17 17 17 17 17 16 15 14 15 15 15 14 15 14 14 14 14 12
22 22 22 23 23 21 19 19 19 19 19 19 17 15 15 15 15 15 15 17 17 17 18 18 18 18 19 19 20 20 19 19 18 18 18 18 17 18 17 16 16 15 15
22 21 19 18 17 16 15 14 14 15 13 12 12 12 15 15 17 18 17 18 18 19 19 19 20 20 21 22 22 22 22 22 22 21 21 20 20 20 20 19 18 18 18
20 19 18 15 14 14 14 13 14 15 15 15 16 17 17 17 18 19 19 19 19 20 20 21 22 22 23 23 24 25 25 24 25 24 24 24 23 23 22 22 21 21 21
21 19 17 17 16 16 17 17 17 16 16 18 19 19 18 17 18 18 18 18 19 19 20 21 21 23 23 24 25 25 25 25 26 27 27 26 26 25 24 24 24 23 23
23 22 20 18 18 17 19 19 18 18 18 19 21 21 19 17 19 19 18 18 19 19 20 20 21 22 24 25 25 26 27 28 29 29 29 28 27 27 27 26 26 25 27
26 24 23 20 19 20 20 20 19 20 20 20 21 24 25 23 21 19 18 19 20 20 20 21 23 24 24 26 27 28 28 30 30 30 30 30 30 29 29 29 29 28 29
29 26 24 23 23 22 22 23 22 24 26 25 24 26 26 25 22 22 21 21 22 21 22 24 25 26 26 27 28 29 30 30 31 31 31 32 31 31 31 31 31 30 31
31 30 27 27 24 26 25 24 26 29 27 27 25 25 26 25 23 22 21 22 24 25 26 26 26 27 28 29 29 30 31 32 31 33 33 33 33 33 33 32 32 32 32
34 33 31 29 27 29 24 28 29 27 26 26 26 27 29 26 27 25 22 25 27 25 26 27 28 30 31 32 32 34 35 35 35 35 35 35 36 35 35 35 34 34 33
39 35 36 33 34 29 32 33 28 26 26 24 25 23 26 29 25 20 22 25 27 29 31 32 32 33 34 36 35 36 37 38 38 37 38 38 37 38 39 38 38 38 37
42 36 27 29 31 30 33 26 23 24 27 25 24 25 24 21 19 22 28 30 33 34 34 34 35 35 36 37 38 38 38 39 40 41 40 42 42 41 41 42 42 41 40
41 38 31 26 28 32 30 30 28 26 22 20 18 20 25 26 25 27 30 33 34 38 37 38 37 38 39 39 40 41 41 41 39 41 41 39 40 40 41 39 39 38 38
35 45 22 26 32 34 32 29 31 21 17 21 24 25 28 30 30 30 32 34 38 38 37 38 39 39 39 40 41 41 40 40 40 36 36 41 42 40 40 43 44 43 44
36 25 29 32 35 30 26 28 27 21 21 25 29 30 30 31 33 34 35 36 37 38 38 39 40 40 41 40 38 38 38 41 43 45 46 46 47 49 50 51 51 53 52
41 41 36 36 34 29 29 29 33 27 29 31 33 31 32 32 33 34 35 37 38 38 40 41 41 41 40 39 41 42 45 48 51 53 55 57 58 57 58 59 59 59 60
41 36 37 33 30 28 31 34 29 32 33 33 34 34 34 34 34 35 37 38 40 41 42 43 42 39 40 45 48 53 55 56 59 60 62 64 66 68 69 70 70 69 68
38 35 38 35 31 35 36 32 32 36 34 32 33 34 35 36 37 38 39 41 43 44 43 40 42 45 48 52 55 59 63 66 69 70 70 71 72 72 73 75 76 77 77
40 40 40 40 38 32 32 31 34 36 34 34 35 36 37 38 40 41 43 45 45 43 43 47 50 54 58 62 65 69 71 73 74 76 76 76 77 78 79 80 81 83 84
Wind_Direction
286 293 302 309 317 323 327 326 318 320 309 305 280 274 270 266 261 263 268 270 281 290 306 327 343 353 357 4 8 12 9 11 12 11 9 3 6 10 13 20 18 25 31
274 281 289 298 308 312 315 314 311 309 310 303 290 277 275 271 270 268 266 265 266 268 277 284 295 313 331 340 351 359 5 7 8 8 6 359 359 358 5 10 12 17 13
275 284 292 298 301 303 306 308 305 302 304 302 300 284 275 271 268 268 265 262 263 264 264 269 273 283 297 312 326 338 349 0 1 1 358 357 355 350 351 353 355 5 358
278 286 291 294 296 297 297 298 300 297 298 299 294 293 279 273 271 270 270 269 266 265 264 265 268 272 280 291 304 316 327 342 342 347 349 347 352 343 342 344 345 341 343
279 282 286 291 294 295 295 292 291 290 289 290 291 289 285 276 272 274 275 271 268 267 267 266 267 271 277 281 287 293 303 313 324 327 337 339 339 339 333 331 331 334 330
277 283 288 291 292 291 290 289 286 284 284 286 288 287 286 279 271 269 271 272 270 270 268 268 266 269 270 272 276 282 291 305 307 320 321 324 328 328 322 319 319 321 319
278 283 286 289 290 288 285 283 282 283 284 284 285 286 281 284 279 266 266 268 265 267 270 268 268 268 270 272 274 278 282 292 299 303 306 309 312 312 311 312 310 308 309
281 285 286 287 290 293 285 281 282 283 285 285 284 282 284 284 281 265 258 259 258 260 265 268 270 271 273 276 281 284 287 288 291 293 295 295 298 297 297 297 297 297 298
279 283 285 286 288 291 293 286 284 286 286 287 286 286 283 287 284 277 271 270 267 266 266 268 270 273 275 276 278 281 283 285 285 286 287 289 288 286 287 287 288 289 289
278 282 283 284 285 288 292 295 290 284 285 284 285 282 288 286 284 284 281 276 271 272 271 271 271 271 273 276 278 280 281 283 282 282 282 282 282 282 283 283 282 283 281
273 277 275 277 286 294 299 293 290 287 279 273 272 273 279 277 278 279 278 277 276 275 274 273 275 276 276 277 278 279 281 282 282 282 282 283 282 280 279 277 276 274 275
275 270 268 274 280 288 290 286 286 281 280 275 273 276 277 276 277 278 279 279 279 280 280 279 279 278 278 278 280 282 283 282 282 282 281 280 279 277 276 275 273 271 267
272 270 269 269 274 278 280 280 279 280 280 279 277 274 272 275 279 279 280 283 284 284 284 284 284 284 285 285 284 284 285 286 284 281 280 279 278 277 275 273 270 267 268
270 271 272 271 271 274 277 276 279 277 277 277 279 277 272 275 277 272 275 281 286 286 287 288 288 288 288 289 289 288 287 285 283 282 281 279 278 277 276 275 272 270 267
265 271 272 272 274 275 278 281 281 284 286 281 285 282 274 271 270 270 276 284 290 292 292 293 292 292 290 290 289 288 287 285 284 282 280 280 278 277 275 274 274 272 270
260 265 268 269 272 275 281 288 289 288 290 291 290 285 274 268 271 278 276 290 292 292 292 292 292 292 292 292 291 289 288 285 285 282 281 277 276 275 273 272 270 269 268
259 263 270 271 272 272 283 282 288 289 283 289 290 289 277 271 271 272 279 296 300 296 296 295 296 299 297 295 293 292 290 288 286 284 281 279 278 276 274 272 270 268 266
262 266 267 275 274 277 284 284 284 284 284 290 282 294 283 268 273 284 280 289 296 299 298 298 297 296 296 293 292 289 288 287 285 284 282 280 276 276 275 272 271 269 266
257 264 268 266 272 281 285 287 275 277 279 286 290 272 281 290 290 292 285 288 295 301 299 297 296 295 294 291 289 287 286 285 286 285 282 281 279 276 272 273 272 270 269
252 259 266 269 276 282 273 269 286 273 277 288 288 292 290 293 289 281 287 289 290 295 296 295 294 291 290 289 289 289 289 287 284 283 282 277 275 276 276 273 270 270 270
257 263 264 272 288 276 283 278 273 267 277 289 287 286 288 290 290 290 290 290 292 293 292 291 290 290 291 290 289 289 286 284 281 275 274 279 278 271 269 271 271 269 266
262 255 279 280 283 300 293 279 269 283 292 290 288 290 290 289 290 290 290 289 289 290 289 290 291 290 289 288 287 285 285 285 283 281 280 279 278 278 277 276 273 272 270
259 261 263 269 282 291 281 272 279 293 290 292 293 291 290 288 288 287 289 289 289 290 291 292 292 291 289 287 286 286 286 286 286 286 285 284 282 279 276 274 272 272 272
258 257 262 270 272 267 269 268 279 289 288 290 289 291 289 289 289 290 291 291 292 293 294 293 290 288 288 288 288 289 288 286 284 283 283 283 283 282 280 278 275 272 269
252 262 266 269 267 267 272 277 287 288 288 288 290 290 289 291 292 292 293 293 294 295 292 289 289 288 287 287 287 288 289 289 288 286 283 281 280 278 277 277 276 275 273
254 259 268 271 273 270 274 282 285 288 290 291 291 292 289 294 296 295 295 295 295 292 290 290 291 291 292 292 292 292 292 291 289 287 286 284 283 281 279 277 275 273 271
Height
5891 5891 5891 5891 5891 5890 5889 5888 5888 5887 5886 5884 5884 5884 5884 5884 5883 5883 5883 5883 5884 5884 5884 5883 5883 5882 5882 5881 5880 5879 5878 5877 5876 5875 5874 5873 5871 5870 5868 5867 5865 5864 5865
5889 5889 5889 5889 5889 5888 5888 5887 5886 5885 5884 5883 5882 5882 5882 5882 5882 5881 5881 5882 5882 5882 5882 5882 5881 5881 5881 5880 5879 5878 5878 5877 5876 5875 5874 5873 5871 5870 5869 5868 5867 5866 5865
5887 5888 5888 5888 5887 5887 5886 5885 5884 5883 5882 5881 5880 5880 5880 5880 5879 5879 5879 5879 5880 5880 5880 5880 5880 5880 5879 5879 5878 5878 5877 5877 5876 5875 5874 5873 5872 5871 5870 5869 5868 5866 5866
5885 5885 5886 5885 5885 5884 5884 5883 5882 5881 5880 5879 5878 5878 5878 5878 5877 5877 5877 5877 5878 5878 5878 5878 5878 5878 5878 5878 5877 5877 5876 5876 5875 5874 5873 5873 5872 5871 5870 5869 5868 5868 5866
5883 5883 5883 5883 5882 5881 5880 5880 5879 5878 5878 5877 5876 5875 5875 5875 5875 5876 5875 5875 5875 5875 5876 5876 5876 5876 5876 5877 5876 5875 5875 5874 5874 5874 5873 5872 5871 5870 5869 5868 5868 5867 5867
5880 5880 5880 5880 5879 5878 5877 5876 5876 5875 5875 5874 5873 5873 5872 5872 5872 5873 5873 5873 5873 5873 5873 5874 5874 5874 5874 5874 5874 5873 5873 5874 5872 5873 5872 5871 5870 5869 5869 5868 5867 5866 5866
5877 5877 5877 5876 5876 5875 5874 5873 5872 5872 5871 5871 5870 5870 5869 5869 5869 5869 5869 5870 5870 5871 5871 5871 5871 5871 5871 5871 5871 5871 5871 5871 5871 5870 5870 5870 5869 5869 5868 5867 5867 5865 5865
5874 5873 5873 5873 5872 5871 5870 5869 5868 5867 5867 5867 5867 5866 5865 5865 5866 5866 5866 5867 5867 5867 5867 5868 5868 5868 5868 5868 5869 5869 5869 5870 5869 5868 5868 5868 5867 5867 5866 5865 5865 5865 5864
5870 5870 5869 5869 5868 5868 5866 5865 5865 5864 5863 5863 5863 5863 5863 5862 5863 5863 5863 5864 5864 5865 5865 5865 5865 5865 5866 5865 5865 5865 5865 5866 5865 5865 5865 5865 5865 5864 5864 5864 5863 5862 5862
5865 5866 5865 5865 5864 5864 5863 5862 5862 5861 5860 5860 5860 5860 5860 5860 5859 5859 5859 5860 5861 5861 5862 5862 5862 5862 5862 5862 5862 5861 5862 5862 5861 5862 5861 5861 5861 5861 5861 5861 5861 5860 5860
5860 5861 5862 5862 5861 5860 5860 5860 5859 5859 5858 5858 5858 5857 5857 5856 5856 5856 5856 5856 5856 5857 5857 5857 5858 5858 5858 5858 5858 5858 5858 5858 5857 5857 5857 5857 5857 5857 5857 5857 5857 5857 5857
5855 5856 5857 5858 5857 5857 5857 5856 5856 5856 5855 5855 5855 5855 5854 5854 5853 5853 5853 5853 5852 5853 5853 5853 5853 5853 5853 5853 5853 5853 5853 5853 5853 5853 5852 5852 5852 5851 5851 5852 5852 5851 5851
5849 5851 5853 5853 5854 5854 5852 5853 5852 5852 5852 5852 5851 5851 5850 5850 5850 5850 5849 5850 5849 5849 5848 5848 5848 5848 5849 5849 5848 5848 5848 5848 5848 5847 5846 5846 5847 5847 5846 5846 5846 5846 5846
5845 5845 5848 5848 5849 5849 5849 5849 5848 5848 5848 5848 5847 5847 5847 5846 5846 5845 5845 5845 5845 5844 5844 5843 5843 5843 5843 5843 5843 5843 5843 5843 5842 5842 5842 5841 5840 5840 5841 5841 5841 5840 5840
5840 5841 5843 5844 5844 5846 5846 5846 5845 5844 5844 5843 5843 5842 5841 5840 5840 5841 5841 5841 5840 5839 5839 5839 5839 5838 5837 5837 5837 5836 5837 5836 5836 5836 5835 5835 5834 5834 5834 5834 5834 5834 5834
5835 5835 5838 5839 5841 5839 5840 5841 5840 5838 5837 5838 5837 5837 5836 5836 5835 5836 5836 5836 5836 5835 5834 5834 5833 5832 5832 5831 5830 5830 5830 5830 5829 5829 5828 5827 5827 5827 5827 5827 5827 5827 5827
5829 5830 5833 5834 5836 5834 5838 5834 5835 5832 5831 5832 5831 5831 5831 5831 5831 5830 5831 5831 5830 5829 5829 5829 5828 5827 5826 5825 5823 5822 5822 5821 5821 5821 5821 5820 5819 5819 5819 5819 5819 5820 5820
5824 5827 5829 5830 5829 5832 5830 5828 5828 5827 5827 5826 5827 5826 5825 5824 5825 5825 5826 5826 5825 5824 5823 5822 5821 5820 5819 5817 5817 5815 5815 5813 5812 5813 5812 5812 5812 5811 5810 5811 5811 5811 5811
5817 5821 5824 5825 5825 5825 5824 5822 5821 5822 5821 5821 5820 5820 5819 5818 5818 5819 5820 5819 5818 5817 5816 5815 5814 5812 5811 5810 5809 5808 5807 5806 5805 5804 5804 5802 5803 5803 5803 5802 5801 5802 5802
5810 5815 5819 5819 5821 5817 5818 5816 5817 5816 5816 5816 5816 5815 5814 5813 5813 5812 5812 5812 5811 5810 5808 5807 5806 5804 5803 5802 5800 5799 5798 5797 5797 5795 5794 5795 5794 5793 5792 5793 5793 5793 5793
5802 5800 5808 5812 5814 5812 5813 5812 5811 5807 5807 5809 5811 5810 5809 5807 5806 5806 5805 5804 5803 5802 5800 5798 5798 5796 5794 5793 5791 5789 5788 5786 5785 5787 5787 5783 5782 5784 5785 5782 5781 5782 5783
5803 5784 5799 5805 5805 5808 5806 5806 5803 5799 5803 5805 5805 5803 5802 5801 5800 5799 5797 5796 5794 5793 5791 5790 5788 5785 5784 5782 5781 5780 5779 5777 5775 5775 5774 5774 5773 5771 5769 5769 5769 5769 5769
5796 5799 5800 5801 5801 5801 5800 5800 5797 5797 5797 5799 5798 5796 5795 5794 5792 5791 5789 5787 5785 5783 5781 5779 5777 5775 5773 5771 5770 5770 5768 5767 5765 5762 5760 5758 5757 5757 5756 5755 5754 5754 5752
5788 5790 5794 5796 5797 5796 5794 5792 5791 5791 5793 5792 5790 5788 5787 5785 5783 5781 5779 5778 5775 5774 5770 5768 5766 5765 5763 5761 5758 5755 5754 5753 5751 5750 5747 5744 5740 5738 5736 5734 5733 5733 5734
5781 5784 5786 5789 5790 5788 5788 5784 5786 5785 5785 5783 5781 5780 5778 5776 5774 5772 5770 5767 5764 5762 5760 5758 5756 5754 5752 5750 5747 5743 5738 5735 5731 5729 5729 5726 5724 5721 5718 5715 5712 5710 5708
5777 5778 5779 5782 5783 5780 5778 5777 5779 5777 5776 5775 5773 5771 5769 5767 5764 5762 5760 5756 5754 5751 5748 5746 5743 5740 5736 5733 5729 5725 5720 5715 5711 5706 5703 5701 5699 5696 5692 5690 5687 5684 5681